CST,Max TemperatureF,Mean TemperatureF,Min TemperatureF,Max Dew PointF,MeanDew PointF,Min DewpointF,Max Humidity, Mean Humidity, Min Humidity, Max Sea Level PressureIn, Mean Sea Level PressureIn, Min Sea Level PressureIn, Max VisibilityMiles, Mean VisibilityMiles, Min VisibilityMiles, Max Wind SpeedMPH, Mean Wind SpeedMPH, Max Gust SpeedMPH,PrecipitationIn, CloudCover, Events, WindDirDegrees
2013-12-1,44,31,17,31,25,17,92,77,62,30.20,29.96,29.71,10,9,6,10,8,14,0.01,5,,86
2013-12-2,32,27,21,31,25,17,92,87,81,29.84,29.64,29.52,10,6,2,20,12,24,0.10,8,Rain-Snow,52
2013-12-3,21,16,10,17,9,5,91,86,80,30.09,29.98,29.86,10,4,1,23,13,32,0.20,8,Snow,4
2013-12-4,10,5,0,5,1,-7,83,78,73,30.18,30.02,29.92,8,3,1,30,18,38,0.22,8,Snow,326
2013-12-5,0,-3,-7,-8,-12,-15,79,69,58,30.51,30.31,30.06,10,10,4,26,16,35,0.00,3,,292
2013-12-6,-3,-7,-12,-14,-17,-21,72,64,56,30.75,30.67,30.53,10,10,10,18,11,24,0.00,0,,280
2013-12-7,-4,-14,-24,-19,-23,-27,78,58,37,30.76,30.67,30.50,10,10,10,14,6,16,0.00,1,,254
2013-12-8,1,-7,-15,-8,-12,-19,79,69,59,30.47,30.18,29.99,10,6,2,14,6,18,0.01,7,Snow,226
2013-12-9,18,3,-13,10,-2,-18,76,67,57,30.22,29.91,29.64,10,6,1,30,13,39,0.03,5,Snow,282
2013-12-10,20,6,-8,13,0,-14,86,73,59,30.53,30.12,29.93,10,7,1,28,11,37,0.01,5,Snow,307
2013-12-11,18,-2,-22,9,-7,-24,86,74,61,30.59,30.43,30.24,10,10,10,15,5,19,0.00,2,,225
2013-12-12,29,15,1,20,11,-2,88,79,69,30.30,30.19,30.06,10,10,10,18,5,22,0.00,3,,70
2013-12-13,13,6,-2,7,-6,-8,87,80,72,30.43,30.29,30.15,10,5,2,22,12,27,T,8,Snow,82
2013-12-14,13,6,-2,4,-1,-8,83,75,67,30.41,30.24,30.07,10,9,3,15,7,17,T,8,Snow,312
2013-12-15,8,5,2,3,-1,-4,87,80,73,30.19,30.04,29.89,10,7,1,17,11,19,0.06,7,Snow,118
2013-12-16,38,22,5,28,20,1,88,76,64,30.07,30.02,29.91,10,10,7,29,13,37,T,3,,281
2013-12-17,34,27,19,22,16,13,81,70,58,30.24,30.08,29.78,10,10,10,23,10,32,0.00,1,,244
2013-12-18,44,28,11,29,19,5,91,72,53,30.11,29.80,29.67,10,10,7,22,10,29,T,3,Snow,328
2013-12-19,11,2,-8,4,-4,-11,87,80,72,30.35,30.24,30.06,10,4,0,18,9,25,0.25,7,Snow,8
2013-12-20,6,-7,-20,-4,-12,-25,83,73,63,30.27,30.04,29.88,10,9,2,15,4,18,0.00,1,,161
2013-12-21,0,-8,-17,-7,-10,-18,83,77,71,30.26,30.11,29.80,10,6,1,13,6,16,0.04,6,Snow,45
2013-12-22,-1,-13,-26,-8,-12,-26,81,73,64,30.65,30.36,30.11,10,7,2,10,6,12,0.02,6,Snow,4
2013-12-23,1,-15,-31,-6,-21,-29,91,78,64,30.72,30.56,30.20,10,9,3,20,7,24,0.00,1,,185
2013-12-24,32,17,1,30,14,-5,88,80,72,30.21,30.05,29.92,10,7,1,24,10,28,0.06,7,Snow,248
2013-12-25,34,29,23,30,24,18,92,78,63,30.27,30.13,30.00,10,9,2,24,11,32,0.01,7,Snow,298
2013-12-26,34,24,13,26,20,13,92,79,66,30.14,30.05,29.93,10,9,2,20,5,24,T,5,Snow,268
2013-12-27,44,30,15,32,28,15,92,80,67,30.04,29.96,29.84,10,10,10,18,6,21,0.00,1,,247
2013-12-28,36,16,-4,26,2,-12,92,79,65,30.61,30.18,29.73,10,6,1,31,13,41,T,5,Snow,351
2013-12-29,9,-1,-11,4,-6,-17,88,72,56,30.61,30.34,29.95,10,8,2,17,7,21,0.02,7,Snow,181
2013-12-30,10,4,-3,6,1,-7,83,78,72,30.35,30.12,29.91,10,6,2,16,7,20,0.09,7,Snow,39
2013-12-31,4,-2,-9,-3,-10,-15,87,78,68,30.44,30.30,30.13,10,4,1,17,9,19,0.13,8,Snow,71